[[{"header":{"parameterUnit":"m.s-1","parameterCategory":1,"la1":30.2991,"la2":30.254,"lo1":-89.0895,"lo2":-89.0444,"dy":0.0017,"dx":0.0017,"nx":28,"ny":28,"refTime":"2025-04-17T21:00:00:Z","depth":0,"parameterNumber":2,"parameterNumberName":"U-component_of_WINDS"},"data":[0,0,0,0,0,0,0,0,0,0,0,0,0,0,0,0,0,0,0,0,0,0,0,0,0,0,0,0,0,0,0,0,0,0,0,0,0,0,0,0,0,0,0,0,0,0,0,0,0,0,0,0,0,0,0,0,0,0,-2.5731,-2.5731,0,-2.5787,-2.5788,-2.5789,-2.5803,-2.5802,-2.5802,-2.5802,-2.5858,-2.586,-2.5862,0,0,0,0,0,0,0,0,0,0,0,0,0,-2.5634,-2.5636,-2.5731,-2.5731,-2.5732,-2.5787,-2.5788,-2.5789,-2.5803,-2.5802,-2.5802,-2.5802,-2.5858,-2.586,-2.5862,0,0,0,0,0,0,0,0,0,0,0,0,0,-2.5682,-2.5637,-2.573,-2.5746,-2.5748,-2.5787,-2.5788,-2.5789,-2.5803,-2.5802,-2.5802,-2.5801,-2.5857,-2.586,-2.5863,-2.589,0,0,-2.5871,-2.5872,0,0,0,0,0,0,0,0,-2.5679,-2.5686,-2.5743,-2.5745,-2.5747,-2.5788,-2.5775,-2.5823,-2.5803,-2.5782,-2.5802,-2.5801,-2.5835,-2.584,-2.5851,-2.5893,-2.5895,-2.5871,-2.5873,-2.5874,-2.5875,0,0,0,0,0,0,0,-2.5676,-2.5683,-2.5753,-2.5744,-2.5746,-2.575,-2.5756,-2.5784,-2.5811,-2.5784,-2.5785,-2.5792,-2.5836,-2.5849,-2.5853,-2.5896,-2.5871,-2.5874,-2.5875,-2.5876,-2.5965,-2.5965,0,0,0,0,0,0,-2.567,-2.568,-2.5751,-2.5755,-2.5711,-2.5752,-2.5759,-2.5775,-2.5811,-2.5815,-2.5792,-2.5792,-2.5844,-2.585,-2.5855,-2.589,-2.5874,-2.5877,-2.5878,-2.5964,-2.5965,-2.5966,0,0,0,0,0,0,-2.5668,-2.5676,-2.5749,-2.5718,-2.5727,-2.5754,-2.5772,-2.5776,-2.5789,-2.5817,-2.5822,-2.58,-2.5844,-2.5851,-2.5882,-2.5892,-2.5878,-2.588,-2.5963,-2.5964,-2.5965,-2.5961,0,0,0,0,0,0,-2.5665,-2.5676,-2.5686,-2.5718,-2.5729,-2.5775,-2.5773,-2.5778,-2.5794,-2.5794,-2.5825,-2.583,-2.5844,-2.5878,-2.5885,-2.5896,-2.5883,-2.5962,-2.5964,-2.5965,-2.596,-2.5961,-2.5963,0,0,0,0,0,-2.5662,-2.5682,-2.5687,-2.5695,-2.5743,-2.5775,-2.5781,-2.5798,-2.5795,-2.5806,-2.5824,-2.5829,-2.5891,-2.5881,-2.5889,-2.5901,-2.5962,-2.5963,-2.5965,-2.5959,-2.5961,-2.5963,0,0,0,0,0,0,-2.5649,-2.5686,-2.5692,-2.5723,-2.5746,-2.5778,-2.5792,-2.5799,-2.5823,-2.5822,-2.5841,-2.5848,-2.5878,-2.5893,-2.5881,-2.593,-2.5926,-2.5929,-2.5919,-2.5921,-2.5922,-2.5918,-2.5885,0,0,0,0,0,-2.5651,-2.5674,-2.5705,-2.5729,-2.5741,-2.5764,-2.5779,-2.579,-2.5814,-2.5824,-2.5844,-2.5867,-2.5892,-2.5908,-2.5932,-2.5963,-2.597,-2.5975,-2.5977,-2.5978,-2.598,-2.5998,-2.6001,-2.5971,-2.5971,-2.5971,0,0,-2.5653,-2.5676,-2.5689,-2.5728,-2.5747,-2.577,-2.5772,-2.5797,-2.5815,-2.5827,-2.5858,-2.5874,-2.5901,-2.5932,-2.5947,-2.5946,-2.599,-2.598,-2.598,-2.5982,-2.6,-2.6003,-2.6005,-2.5972,-2.5972,-2.5971,0,0,-2.5669,-2.5689,-2.5711,-2.5731,-2.576,-2.5776,-2.5782,-2.5813,-2.5824,-2.5855,-2.5866,-2.5887,-2.5929,-2.5948,-2.5964,-2.599,-2.5995,-2.5997,-2.6003,-2.6021,-2.6023,-2.6025,-2.6034,-2.6038,-2.5999,-2.5999,-2.5999,0,-2.5667,-2.5703,-2.5722,-2.5747,-2.5764,-2.5778,-2.5801,-2.5819,-2.5855,-2.5866,-2.5864,-2.5918,-2.5937,-2.5974,-2.598,-2.5992,-2.5999,-2.5993,-2.6022,-2.6024,-2.6026,-2.6035,-2.6038,-2.5999,-2.5999,-2.5999,-2.5999,0,-2.5701,-2.5726,-2.5741,-2.5776,-2.5795,-2.5818,-2.5841,-2.5858,-2.5868,-2.5884,-2.5916,-2.594,-2.597,-2.598,-2.5989,-2.6018,-2.6016,-2.6018,-2.6014,-2.6029,-2.6037,-2.6041,-2.5999,-2.5999,-2.5999,-2.5999,0,0,-2.5708,-2.5755,-2.576,-2.5776,-2.5811,-2.583,-2.5856,-2.5886,-2.59,-2.5924,-2.5946,-2.5982,-2.5985,-2.6002,-2.6014,-2.603,-2.6049,-2.603,-2.6031,-2.6032,-2.6082,-2.608,-2.6083,-2.6054,-2.6055,-2.6055,-2.608,0,-2.5728,-2.5773,-2.5792,-2.5829,-2.5852,-2.5867,-2.5889,-2.5913,-2.5929,-2.5952,-2.597,-2.5996,-2.5997,-2.6008,-2.6024,-2.6043,-2.6059,-2.6042,-2.6074,-2.6075,-2.6065,-2.6088,-2.6085,-2.6107,-2.6083,-2.6084,-2.6084,0,-2.5756,-2.5782,-2.5821,-2.5854,-2.5865,-2.5884,-2.5914,-2.5936,-2.5963,-2.5974,-2.5995,-2.6006,-2.6034,-2.6029,-2.6067,-2.6055,-2.607,-2.6082,-2.6083,-2.6085,-2.6079,-2.609,-2.6115,-2.6118,-2.609,-2.6089,-2.6089,0,-2.5757,-2.5802,-2.5832,-2.5846,-2.5884,-2.5898,-2.5915,-2.5942,-2.5959,-2.5985,-2.5997,-2.6026,-2.6041,-2.6063,-2.6083,-2.6078,-2.6119,-2.6116,-2.6129,-2.6128,-2.6135,-2.6134,-2.6161,-2.6146,-2.6146,-2.6146,-2.6146,0,-2.5777,-2.58,-2.5833,-2.5851,-2.5878,-2.59,-2.5926,-2.5944,-2.5968,-2.599,-2.6005,-2.6025,-2.605,-2.6074,-2.609,-2.6119,-2.6126,-2.6135,-2.6139,-2.6133,-2.6132,-2.6142,-2.6141,-2.6147,-2.6147,-2.6147,-2.6147,0,-2.5782,-2.5805,-2.5838,-2.5873,-2.5882,-2.5901,-2.5931,-2.5949,-2.5967,-2.5995,-2.6003,-2.6031,-2.6059,-2.6082,-2.6119,-2.6129,-2.616,-2.6165,-2.6151,-2.6152,-2.6164,-2.6162,-2.6197,-2.6203,-2.6185,-2.6185,-2.6185,0,-2.5792,-2.5811,-2.5848,-2.5864,-2.5881,-2.5907,-2.5925,-2.5948,-2.5966,-2.6,-2.6014,-2.6044,-2.6069,-2.6115,-2.6138,-2.6167,-2.6172,-2.6182,-2.6176,-2.617,-2.6171,-2.617,-2.6172,-2.6182,-2.6183,-2.6183,-2.6183,0,-2.5808,-2.5819,-2.5845,-2.5875,-2.5896,-2.5921,-2.5946,-2.5958,-2.5985,-2.6005,-2.6035,-2.6055,-2.6094,-2.6123,-2.6155,-2.6172,-2.6182,-2.6185,-2.6189,-2.6183,-2.6174,-2.6179,-2.6152,-2.6183,-2.6183,-2.6183,-2.6183,-2.6183,-2.5816,-2.5833,-2.5863,-2.5891,-2.5913,-2.5936,-2.5955,-2.5976,-2.6002,-2.6035,-2.6047,-2.6078,-2.6107,-2.6151,-2.6169,-2.6193,-2.6194,-2.62,-2.6201,-2.6202,-2.6202,-2.6171,-2.6199,-2.6199,-2.6199,-2.6199,-2.6199,0,-2.5832,-2.5852,-2.5878,-2.5913,-2.5936,-2.5944,-2.5973,-2.5991,-2.6018,-2.6044,-2.6069,-2.6104,-2.6133,-2.616,-2.6191,-2.6206,-2.6211,-2.6213,-2.6211,-2.6215,-2.62,-2.6193,-2.6208,-2.6208,-2.6208,-2.6208,-2.6208,-2.6208,-2.5843,-2.5873,-2.5888,-2.5929,-2.5949,-2.598,-2.5996,-2.6017,-2.6038,-2.6077,-2.6102,-2.6119,-2.6146,-2.6179,-2.6206,-2.6214,-2.6224,-2.6225,-2.6233,-2.6217,-2.6216,-2.6215,-2.6208,-2.6227,-2.6227,-2.6246,-2.6246,-2.6247]},{"header":{"parameterUnit":"m.s-1","parameterCategory":1,"la1":30.2991,"la2":30.254,"lo1":-89.0895,"lo2":-89.0444,"dy":0.0017,"dx":0.0017,"nx":28,"ny":28,"refTime":"2025-04-17T21:00:00:Z","depth":0,"parameterNumber":3,"parameterNumberName":"V-component_of_WINDS"},"data":[0,0,0,0,0,0,0,0,0,0,0,0,0,0,0,0,0,0,0,0,0,0,0,0,0,0,0,0,0,0,0,0,0,0,0,0,0,0,0,0,0,0,0,0,0,0,0,0,0,0,0,0,0,0,0,0,0,0,2.8655,2.8654,0,2.8559,2.8558,2.8557,2.8484,2.8483,2.8483,2.8482,2.838,2.8378,2.8376,0,0,0,0,0,0,0,0,0,0,0,0,0,2.8774,2.8773,2.8655,2.8654,2.8653,2.8559,2.8558,2.8557,2.8484,2.8483,2.8483,2.8482,2.8381,2.8378,2.8376,0,0,0,0,0,0,0,0,0,0,0,0,0,2.8705,2.8772,2.8655,2.8606,2.86,2.8559,2.8558,2.8556,2.8484,2.8483,2.8482,2.8482,2.8381,2.8378,2.8375,2.8375,0,0,2.8366,2.8364,0,0,0,0,0,0,0,0,2.8709,2.8701,2.8614,2.8609,2.8603,2.8533,2.8562,2.8495,2.8485,2.8528,2.8482,2.8481,2.8431,2.8424,2.8408,2.837,2.8366,2.8365,2.8363,2.8362,2.8361,0,0,0,0,0,0,0,2.8714,2.8704,2.8617,2.8613,2.8606,2.8587,2.8576,2.8549,2.8486,2.8524,2.8519,2.8509,2.8428,2.8411,2.8405,2.8365,2.8365,2.8363,2.8361,2.8359,2.8324,2.8325,0,0,0,0,0,0,2.8727,2.8709,2.862,2.8614,2.8655,2.8586,2.8574,2.8556,2.8486,2.8475,2.851,2.8506,2.8417,2.8409,2.8401,2.8397,2.8362,2.8359,2.8357,2.8323,2.8324,2.8325,0,0,0,0,0,0,2.873,2.872,2.8624,2.866,2.8646,2.8585,2.8566,2.8555,2.8538,2.8475,2.8463,2.8504,2.8416,2.8406,2.8383,2.8393,2.8358,2.8355,2.8322,2.8323,2.8325,2.839,0,0,0,0,0,0,2.8733,2.8721,2.8721,2.8661,2.8645,2.8608,2.8566,2.8554,2.8533,2.8527,2.8467,2.8456,2.8414,2.8388,2.838,2.8388,2.8352,2.8321,2.8323,2.8324,2.8386,2.8393,2.8399,0,0,0,0,0,2.8738,2.8741,2.8721,2.8711,2.8643,2.8609,2.86,2.8553,2.8534,2.8533,2.8493,2.8458,2.8394,2.8386,2.8376,2.8384,2.832,2.8322,2.8324,2.8383,2.8392,2.8399,0,0,0,0,0,0,2.8802,2.8733,2.8709,2.8693,2.8658,2.8597,2.8593,2.8563,2.853,2.8526,2.8468,2.8455,2.8439,2.8409,2.8402,2.8381,2.8352,2.8353,2.8401,2.8408,2.8414,2.8421,2.835,0,0,0,0,0,2.8815,2.8794,2.8734,2.8726,2.8709,2.8655,2.8638,2.8605,2.8565,2.855,2.8508,2.847,2.8441,2.8423,2.8393,2.8382,2.8368,2.8382,2.8389,2.8394,2.8395,2.8388,2.8394,2.8332,2.8332,2.8332,0,0,2.884,2.88,2.8789,2.8738,2.8706,2.8685,2.8642,2.8621,2.8605,2.8546,2.8522,2.8491,2.8444,2.8428,2.8419,2.8403,2.8409,2.8397,2.8402,2.8399,2.8391,2.8397,2.8402,2.8334,2.8333,2.8333,0,0,2.8876,2.8843,2.8833,2.8804,2.8757,2.8722,2.872,2.8664,2.8641,2.8617,2.8573,2.8552,2.8503,2.8473,2.8451,2.8478,2.8445,2.847,2.8502,2.8497,2.8501,2.8505,2.8516,2.852,2.8471,2.8471,2.8471,0,2.8912,2.888,2.8832,2.8814,2.8793,2.8741,2.8731,2.8704,2.865,2.8636,2.862,2.8559,2.8524,2.85,2.8508,2.8491,2.8487,2.8476,2.8505,2.8508,2.8511,2.852,2.8524,2.8474,2.8474,2.8474,2.8473,0,2.8928,2.8906,2.8904,2.8855,2.8834,2.882,2.877,2.8754,2.8724,2.869,2.8667,2.8624,2.8585,2.8577,2.8547,2.855,2.8542,2.8516,2.8486,2.8521,2.8529,2.8532,2.8479,2.8478,2.8477,2.8476,0,0,2.8998,2.8926,2.8926,2.8904,2.885,2.8832,2.8817,2.878,2.8768,2.8733,2.8719,2.868,2.8657,2.8632,2.8598,2.8593,2.8619,2.8568,2.8566,2.8579,2.862,2.864,2.8645,2.8597,2.8597,2.8598,2.8624,0,2.9025,2.8995,2.8953,2.8937,2.8917,2.8869,2.8855,2.8821,2.879,2.8768,2.8732,2.8706,2.8677,2.8662,2.8655,2.8617,2.8626,2.8615,2.8582,2.8582,2.8595,2.8649,2.8668,2.8696,2.8627,2.8627,2.8628,0,2.9052,2.9022,2.9005,2.8955,2.8945,2.8934,2.8898,2.8878,2.8838,2.8816,2.879,2.8754,2.8735,2.8709,2.8683,2.8676,2.866,2.864,2.864,2.8634,2.8606,2.8644,2.8703,2.8707,2.8632,2.8632,2.8631,0,2.9106,2.9061,2.9045,2.9028,2.8969,2.8963,2.8938,2.8898,2.8879,2.8848,2.8836,2.8802,2.8784,2.8759,2.8715,2.87,2.8693,2.8663,2.8674,2.8675,2.8673,2.8674,2.873,2.8665,2.8665,2.8665,2.8664,0,2.914,2.9131,2.9069,2.9059,2.9049,2.9001,2.8991,2.8962,2.8927,2.891,2.8866,2.8852,2.8795,2.8774,2.8739,2.8723,2.8715,2.8696,2.8687,2.87,2.8702,2.8688,2.8685,2.8666,2.8665,2.8665,2.8665,0,2.9197,2.9155,2.9135,2.9083,2.9069,2.9064,2.9018,2.9007,2.8974,2.8954,2.8947,2.8895,2.8868,2.8822,2.8781,2.8758,2.8749,2.8733,2.8763,2.8757,2.877,2.877,2.8819,2.8823,2.8755,2.8756,2.8757,0,2.9221,2.9214,2.9161,2.9148,2.9126,2.9104,2.9086,2.9039,2.9022,2.8978,2.8973,2.8943,2.8916,2.8875,2.8833,2.8802,2.8786,2.8805,2.8781,2.8795,2.8786,2.8787,2.8786,2.8811,2.8812,2.8813,2.8813,0,2.9268,2.9249,2.9225,2.9195,2.9175,2.9148,2.9119,2.9111,2.9057,2.904,2.9013,2.8993,2.8953,2.8924,2.8888,2.8861,2.8828,2.8822,2.8823,2.8835,2.8853,2.8844,2.8778,2.882,2.882,2.8819,2.8819,2.8818,2.9309,2.9301,2.9264,2.924,2.9214,2.9188,2.9176,2.9143,2.912,2.9085,2.9059,2.9034,2.8996,2.8944,2.892,2.89,2.8885,2.8886,2.8886,2.8887,2.8892,2.8857,2.8893,2.8893,2.8892,2.8892,2.8892,0,2.9355,2.9329,2.9307,2.927,2.9251,2.9224,2.9191,2.9177,2.9156,2.9124,2.91,2.907,2.9042,2.9,2.8969,2.8961,2.8945,2.8954,2.8954,2.8949,2.8907,2.891,2.8967,2.8967,2.8967,2.8967,2.8967,2.8967,2.9376,2.9361,2.9338,2.931,2.9284,2.9261,2.9245,2.9221,2.9196,2.9165,2.9143,2.9116,2.908,2.9047,2.902,2.9008,2.8999,2.9013,2.8997,2.8958,2.8951,2.8944,2.8947,2.9011,2.9011,2.9039,2.904,2.904]}]]